DW6554 Weather Reports


Display with metric or nautical units.
time (UTC)temp
F
wind
direction
speed
MPH
gust
MPH
rain 1hr
in
rain 24hr
in
rain mn
in
humidity
%
barometer
mb
20180220195248 65 0.0 0.0 0.00 0.37 0.01 71 1025.3
20180220193746 64 0.0 0.0 0.00 0.37 0.01 73 1025.2
20180220192241 63 0.0 0.0 0.00 0.37 0.01 75 1025.6
20180220190741 63 0.0 0.0 0.00 0.37 0.01 77 1025.4
20180220185237 62 0.0 0.0 0.00 0.41 0.01 77 1025.6
20180220183733 61 0.0 0.0 0.00 0.41 0.01 80 1025.6
20180220182229 60 0.0 0.0 0.00 0.41 0.01 80 1025.8
20180220180725 59 0.0 0.0 0.00 0.41 0.01 80 1025.9
20180220175225 58 0.0 0.0 0.00 0.44 0.01 80 1026.1
20180220173725 57 0.0 0.0 0.00 0.44 0.01 75 1026.1
20180220172218 58 0.0 0.0 0.00 0.44 0.01 62 1026.3
20180220170717 56 0.0 0.0 0.00 0.44 0.01 52 1026.4
20180220165210 54 0.0 0.0 0.00 0.48 0.01 53 1026.6
20180220163706 53 0.0 0.0 0.00 0.48 0.01 55 1026.6
20180220162205 52 0.0 0.0 0.00 0.48 0.01 55 1026.9
20180220160703 52 0.0 0.0 0.00 0.48 0.01 55 1027.0
20180220155159 51 0.0 0.0 0.00 0.50 0.01 56 1027.0
20180220153659 51 0.0 0.0 0.00 0.50 0.01 56 1027.0
20180220152158 50 0.0 0.0 0.00 0.50 0.01 56 1027.0
20180220150655 50 0.0 0.0 0.00 0.50 0.01 56 1027.2
20180220145156 50 0.0 0.0 0.00 0.51 0.01 57 1027.3
20180220143652 49 0.0 0.0 0.00 0.51 0.01 57 1027.3
20180220142150 49 0.0 0.0 0.00 0.51 0.01 57 1027.2
20180220140651 48 0.0 0.0 0.00 0.51 0.01 57 1027.4
20180220135148 48 0.0 0.0 0.00 0.51 0.01 58 1027.3
20180220133647 47 0.0 0.0 0.00 0.51 0.01 58 1027.3
20180220132148 47 0.0 0.0 0.00 0.51 0.01 58 1027.3
20180220130649 47 0.0 0.0 0.00 0.51 0.01 58 1027.1
20180220125149 47 0.0 0.0 0.00 0.51 0.01 58 1027.2
20180220123645 47 0.0 0.0 0.00 0.51 0.01 58 1027.3
20180220122145 47 0.0 0.0 0.00 0.51 0.01 58 1027.2
20180220120645 47 0.0 0.0 0.00 0.51 0.01 58 1027.3
20180220115146 47 0.0 0.0 0.00 0.51 0.01 58 1027.0
20180220113647 46 0.0 0.0 0.00 0.51 0.01 58 1026.7
20180220112146 47 0.0 0.0 0.00 0.51 0.01 58 1026.7
20180220110643 47 0.0 0.0 0.00 0.51 0.01 58 1026.6
20180220105142 47 0.0 0.0 0.00 0.51 0.01 58 1026.5
20180220103642 47 0.0 0.0 0.00 0.51 0.01 58 1026.3
20180220102143 47 0.0 0.0 0.00 0.51 0.01 58 1026.2
20180220100643 47 0.0 0.0 0.00 0.51 0.01 58 1026.4
20180220095138 47 0.0 0.0 0.00 0.51 0.01 58 1026.6
20180220093635 48 0.0 0.0 0.00 0.51 0.01 58 1026.6
20180220092135 48 0.0 0.0 0.00 0.51 0.01 58 1026.6
20180220090635 48 0.0 0.0 0.00 0.51 0.01 58 1026.5
20180220085133 48 0.0 0.0 0.01 0.51 0.01 58 1026.4
20180220083634 48 0.0 0.0 0.01 0.51 0.01 58 1026.4
20180220082131 48 0.0 0.0 0.01 0.51 0.01 58 1026.4
20180220080629 48 0.0 0.0 0.01 0.51 0.01 58 1026.7
20180220075130 48 0.0 0.0 0.00 0.50 0.00 58 1026.8
20180220073631 48 0.0 0.0 0.00 0.50 0.00 58 1026.9
20180220072131 48 0.0 0.0 0.00 0.50 0.00 58 1027.0
20180220070626 47 0.0 0.0 0.00 0.50 0.00 58 1026.9
20180220065125 47 0.0 0.0 0.00 0.50 0.00 58 1027.3
20180220063625 47 0.0 0.0 0.00 0.50 0.00 58 1027.2
20180220062126 48 0.0 0.0 0.00 0.50 0.00 58 1027.2
20180220060624 47 0.0 0.0 0.00 0.50 0.00 58 1027.2
20180220055120 47 0.0 0.0 0.00 0.50 0.00 58 1027.4
20180220053620 47 0.0 0.0 0.00 0.50 0.00 58 1027.7
20180220052117 47 0.0 0.0 0.01 0.50 0.00 58 1027.6
20180220050616 46 0.0 0.0 0.01 0.50 0.00 58 1027.4
20180220045113 46 0.0 0.0 0.01 0.50 0.50 59 1028.0
20180220043611 46 0.0 0.0 0.01 0.50 0.50 59 1028.4
20180220042110 46 0.0 0.0 0.00 0.49 0.49 59 1028.7
20180220040608 45 0.0 0.0 0.02 0.49 0.49 59 1028.7
20180220035106 45 0.0 0.0 0.04 0.49 0.49 59 1029.1
20180220033606 45 0.0 0.0 0.06 0.49 0.49 59 1029.0
20180220032108 45 0.0 0.0 0.08 0.48 0.48 60 1028.9
20180220030606 44 0.0 0.0 0.09 0.47 0.47 60 1028.5
20180220025105 44 0.0 0.0 0.08 0.45 0.45 60 1028.9
20180220023602 43 0.0 0.0 0.06 0.43 0.43 60 1029.0
20180220022102 43 0.0 0.0 0.03 0.40 0.40 61 1029.0
20180220020603 42 0.0 0.0 0.01 0.38 0.38 62 1029.0
20180220015101 42 0.0 0.0 0.01 0.37 0.37 61 1029.1
20180220013602 42 0.0 0.0 0.01 0.37 0.37 62 1029.1
20180220012100 42 0.0 0.0 0.03 0.37 0.37 62 1029.0
20180220010559 42 0.0 0.0 0.04 0.37 0.37 62 1028.8
20180220005059 41 0.0 0.0 0.05 0.37 0.36 63 1028.8
20180220003559 41 0.0 0.0 0.07 0.37 0.36 63 1028.9
20180220002058 41 0.0 0.0 0.06 0.35 0.34 64 1029.0
20180220000555 40 0.0 0.0 0.06 0.34 0.33 65 1029.0
20180219235054 40 0.0 0.0 0.06 0.33 0.31 65 1029.3
20180219233557 40 0.0 0.0 0.06 0.31 0.28 65 1029.2
20180219232056 40 0.0 0.0 0.07 0.30 0.28 66 1029.4
20180219230552 40 0.0 0.0 0.07 0.28 0.27 67 1029.4
20180219225054 39 0.0 0.0 0.06 0.28 0.25 69 1029.3
20180219223549 39 0.0 0.0 0.04 0.27 0.23 70 1029.2
20180219222047 39 0.0 0.0 0.03 0.25 0.21 73 1029.4
20180219220548 40 0.0 0.0 0.03 0.24 0.20 75 1029.7
20180219215044 40 0.0 0.0 0.02 0.26 0.19 77 1030.1
20180219213546 41 0.0 0.0 0.02 0.26 0.19 80 1030.0
20180219212041 42 0.0 0.0 0.01 0.25 0.18 82 1030.3
20180219210543 43 0.0 0.0 0.01 0.24 0.17 81 1030.4
20180219205042 43 0.0 0.0 0.02 0.27 0.17 79 1030.4
20180219203539 43 0.0 0.0 0.02 0.27 0.17 78 1030.6
20180219202039 43 0.0 0.0 0.02 0.27 0.17 77 1030.4
20180219200538 43 0.0 0.0 0.02 0.26 0.16 77 1030.4